Tracking 19709 objects as of 20-Jun-2019
HD Live streaming from Space Station
objects crossing your sky now

WESTFORD NEEDLES

Track WESTFORD NEEDLES now!
10-day predictions
WESTFORD NEEDLES is classified as:


NORAD ID: 18615
Int'l Code: 1963-014DK
Perigee: 2,547.1 km
Apogee: 4,655.9 km
Inclination: 86.7 °
Period: 165.2 minutes
Semi major axis: 9972 km
RCS: 0.075 m2 (small)
Launch date: May 9, 1963
Source: United States (US)
Launch site: AIR FORCE WESTERN TEST RANGE (AFWTR)
aabbcc
Your satellite tracking list
Your tracking list is empty




NASA's NSSDC Master Catalog

Two Line Element Set (TLE):
1 18615U 63014DK  19122.65208437  .00000000  00000-0  00000+0 0  9994
2 18615  86.7099  54.0426 1057305 285.1722 234.3820  8.71763744817736
Source of the keplerian elements: AFSPC